Home   Weather   Hayward   Past weeks

Flag for USA Past Weather in Hayward, California, USA — Yesterday and Last 2 Weeks

Now
63 °F

Sunny.


Feels Like: 63 °F
Forecast: 53 / 67 °F
Wind: 22 mph from Northwest

Location: Hayward Air Terminal

Current Time: Apr 23, 2017 at 4:52:44 pm

Latest Report: Apr 23, 2017 at 3:54 pm


Visibility: 10 mi

Pressure: 30.06 "Hg

Humidity: 56%

Dew Point: 47 °F

Location of HaywardLocation

Past Weather in Hayward — Graph

°F

Hayward Temperature Yesterday

Maximum temperature yesterday: 66 °F (at 12:54 pm)
Minimum temperature yesterday: 50 °F (at 5:54 am)
Average temperature yesterday: 59 °F

High & Low Weather Summary for the Past Weeks

 TemperatureHumidityPressure
High74 °F (Apr 21, 2:54 pm)87% (Apr 12, 8:01 am)30.34 "Hg (Apr 12, 8:01 am)
Low43 °F (Apr 9, 5:54 am)29% (Apr 21, 4:54 pm)29.91 "Hg (Apr 13, 12:28 am)
Average58 °F64%30.11 "Hg
* Reported Apr 8 2:54 pm — Apr 23 2:54 pm, Hayward, Weather by CustomWeather, © 2017

Note: Actual official high and low records may vary slightly from our data, if they occured in-between our weather recording intervals... More about our weather records

Advertising

Hayward Weather History for the Previous 24 Hours

Scroll right to see more
 ConditionsComfort  
Time TempWeatherWind HumidityBarometerVisibility
2:54 pm
Sun, Apr 23
64 °FSunny.18 mph52%30.07 "Hg10 mi
1:54 pm64 °FSunny.20 mph52%30.06 "Hg10 mi
12:54 pm64 °FPassing clouds.16 mph54%30.07 "Hg10 mi
11:54 am63 °FSunny.15 mph54%30.07 "Hg10 mi
10:54 am62 °FPassing clouds.14 mph54%30.05 "Hg10 mi
9:54 am61 °FPassing clouds.12 mph54%30.04 "Hg10 mi
8:54 am59 °FSunny.7 mph60%30.03 "Hg10 mi
7:54 am57 °FSunny.10 mph64%30.03 "Hg10 mi
6:54 am55 °FSunny.9 mph69%30.02 "Hg10 mi
5:54 am56 °FClear.13 mph65%30.02 "Hg10 mi
4:54 am56 °FClear.8 mph65%30.02 "Hg10 mi
3:54 am53 °FClear.5 mph74%30.01 "Hg10 mi
2:54 am53 °FClear.No wind72%30.01 "Hg10 mi
1:54 am55 °FClear.No wind64%30.01 "Hg10 mi
12:54 am55 °FClear.3 mph67%30.03 "Hg10 mi
11:54 pm
Sat, Apr 22
56 °FClear.3 mph65%30.03 "Hg10 mi
10:54 pm57 °FClear.8 mph69%30.04 "Hg10 mi
9:54 pm57 °FClear.5 mph67%30.03 "Hg10 mi
8:54 pm59 °FClear.14 mph64%30.04 "Hg10 mi
7:54 pm60 °FPassing clouds.7 mph65%30.03 "Hg10 mi
6:54 pm62 °FSunny.13 mph65%30.03 "Hg10 mi
5:54 pm61 °FCloudy.14 mph70%30.03 "Hg10 mi
4:54 pm64 °FMore clouds than sun.20 mph65%30.03 "Hg10 mi
Weather by CustomWeather, © 2017

See weather overviewHow to use our weather pages